[[{"header":{"parameterUnit":"m.s-1","parameterCategory":1,"la1":30.2991,"la2":30.254,"lo1":-89.0895,"lo2":-89.0444,"dy":0.0017,"dx":0.0017,"nx":28,"ny":28,"refTime":"2025-03-14T09:00:00:Z","depth":0,"parameterNumber":2,"parameterNumberName":"U-component_of_WINDS"},"data":[0,0,0,0,0,0,0,0,0,0,0,0,0,0,0,0,0,0,0,0,0,0,0,0,0,0,0,0,0,0,0,0,0,0,0,0,0,0,0,0,0,0,0,0,0,0,0,0,0,0,0,0,0,0,0,0,0,0,-4.5344,-4.5345,0,-4.5519,-4.5521,-4.5523,-4.5584,-4.5584,-4.5583,-4.5582,-4.5763,-4.5768,-4.5774,0,0,0,0,0,0,0,0,0,0,0,0,0,-4.5061,-4.5066,-4.5343,-4.5346,-4.5348,-4.5519,-4.5522,-4.5524,-4.5585,-4.5584,-4.5583,-4.5582,-4.5761,-4.5768,-4.5774,0,0,0,0,0,0,0,0,0,0,0,0,0,-4.5205,-4.5067,-4.5343,-4.5399,-4.5405,-4.5519,-4.5522,-4.5525,-4.5585,-4.5584,-4.5583,-4.5582,-4.5759,-4.5767,-4.5775,-4.5846,0,0,-4.58,-4.5803,0,0,0,0,0,0,0,0,-4.5196,-4.5215,-4.5388,-4.5395,-4.5403,-4.5529,-4.5488,-4.5632,-4.5585,-4.5517,-4.5582,-4.5581,-4.5686,-4.57,-4.5735,-4.5854,-4.5862,-4.5801,-4.5806,-4.5809,-4.5811,0,0,0,0,0,0,0,-4.5186,-4.5208,-4.5413,-4.5391,-4.54,-4.5415,-4.5434,-4.5516,-4.5605,-4.5523,-4.5527,-4.5547,-4.569,-4.5727,-4.574,-4.5865,-4.58,-4.5808,-4.5813,-4.5816,-4.6051,-4.6052,0,0,0,0,0,0,-4.5167,-4.5199,-4.5407,-4.5418,-4.5295,-4.5421,-4.5443,-4.5489,-4.5604,-4.5621,-4.5548,-4.555,-4.5714,-4.573,-4.5747,-4.5837,-4.5809,-4.5817,-4.5821,-4.605,-4.6051,-4.6053,0,0,0,0,0,0,-4.5161,-4.5185,-4.54,-4.531,-4.5339,-4.5427,-4.5479,-4.5493,-4.5531,-4.5623,-4.564,-4.557,-4.5714,-4.5735,-4.5821,-4.5844,-4.582,-4.5828,-4.6048,-4.605,-4.6052,-4.6017,0,0,0,0,0,0,-4.5152,-4.5182,-4.521,-4.531,-4.5343,-4.5471,-4.5481,-4.5498,-4.5545,-4.5549,-4.5648,-4.5664,-4.5715,-4.5808,-4.5829,-4.5855,-4.5834,-4.6047,-4.6049,-4.6052,-4.6017,-4.6018,-4.6019,0,0,0,0,0,-4.5142,-4.5193,-4.5211,-4.5236,-4.5379,-4.5472,-4.5491,-4.5548,-4.5547,-4.5575,-4.5635,-4.5661,-4.5838,-4.5816,-4.584,-4.5869,-4.6045,-4.6048,-4.6051,-4.6016,-4.6018,-4.6019,0,0,0,0,0,0,-4.5093,-4.5207,-4.5228,-4.5313,-4.5383,-4.5482,-4.552,-4.5548,-4.5619,-4.562,-4.5688,-4.571,-4.579,-4.5839,-4.5812,-4.5944,-4.5943,-4.5951,-4.5909,-4.5911,-4.5912,-4.5898,-4.5841,0,0,0,0,0,-4.5092,-4.5158,-4.5254,-4.532,-4.5354,-4.5431,-4.5473,-4.5511,-4.5586,-4.5616,-4.5681,-4.5753,-4.5825,-4.5871,-4.5942,-4.6025,-4.6047,-4.6057,-4.6058,-4.6058,-4.6063,-4.6111,-4.6116,-4.6063,-4.6063,-4.6063,0,0,-4.5091,-4.5161,-4.5198,-4.5312,-4.537,-4.5436,-4.5455,-4.5524,-4.5575,-4.5626,-4.5711,-4.5762,-4.5846,-4.5931,-4.5971,-4.5973,-4.6083,-4.6062,-4.6061,-4.6067,-4.6114,-4.6119,-4.6123,-4.6065,-4.6065,-4.6064,0,0,-4.5122,-4.5182,-4.5243,-4.5302,-4.5389,-4.5441,-4.5455,-4.5551,-4.5587,-4.5673,-4.5713,-4.5774,-4.5897,-4.5956,-4.6001,-4.6056,-4.6083,-4.6078,-4.6082,-4.6128,-4.6132,-4.6136,-4.6154,-4.616,-4.6083,-4.6083,-4.6083,0,-4.5109,-4.521,-4.5271,-4.5339,-4.5387,-4.5438,-4.55,-4.5554,-4.5661,-4.5693,-4.5695,-4.585,-4.5911,-4.6009,-4.6022,-4.6058,-4.6077,-4.6065,-4.6126,-4.6131,-4.6135,-4.6154,-4.6161,-4.6082,-4.6082,-4.6082,-4.6082,0,-4.519,-4.526,-4.5299,-4.54,-4.5454,-4.5518,-4.5589,-4.5636,-4.567,-4.5721,-4.5808,-4.5883,-4.5971,-4.5997,-4.6031,-4.6101,-4.61,-4.6113,-4.6113,-4.6138,-4.6157,-4.6164,-4.608,-4.608,-4.6081,-4.6081,0,0,-4.5193,-4.5328,-4.5342,-4.5388,-4.549,-4.5545,-4.5612,-4.5698,-4.5736,-4.5809,-4.5867,-4.597,-4.5983,-4.6035,-4.6077,-4.6116,-4.6154,-4.6125,-4.6128,-4.6127,-4.6235,-4.6223,-4.6231,-4.6173,-4.6175,-4.6176,-4.6228,0,-4.5237,-4.5358,-4.5416,-4.5512,-4.5577,-4.5627,-4.5686,-4.5754,-4.5804,-4.5867,-4.5923,-4.5995,-4.6007,-4.6039,-4.608,-4.614,-4.6177,-4.6138,-4.6227,-4.623,-4.6203,-4.6241,-4.6228,-4.6273,-4.6235,-4.6237,-4.6238,0,-4.5303,-4.5375,-4.5478,-4.5572,-4.5601,-4.5653,-4.5736,-4.5796,-4.5875,-4.5909,-4.5967,-4.6007,-4.608,-4.6077,-4.6179,-4.6151,-4.6192,-4.6227,-4.623,-4.624,-4.6234,-4.6249,-4.6289,-4.6295,-4.625,-4.6249,-4.6248,0,-4.5294,-4.5417,-4.5494,-4.5533,-4.5644,-4.5679,-4.5728,-4.5806,-4.5854,-4.5927,-4.5959,-4.604,-4.6083,-4.6145,-4.6206,-4.6199,-4.6302,-4.6304,-4.6332,-4.633,-4.635,-4.6347,-4.6395,-4.6378,-4.6378,-4.6378,-4.6378,0,-4.5335,-4.5396,-4.5491,-4.5539,-4.5608,-4.5674,-4.5742,-4.5794,-4.5863,-4.5922,-4.5971,-4.6025,-4.6103,-4.6167,-4.6216,-4.6292,-4.6312,-4.6341,-4.6353,-4.6336,-4.6332,-4.6362,-4.636,-4.638,-4.6379,-4.6379,-4.6379,0,-4.5336,-4.5402,-4.549,-4.5588,-4.5615,-4.5662,-4.5747,-4.5795,-4.5848,-4.5921,-4.5942,-4.6026,-4.6104,-4.6171,-4.6275,-4.6307,-4.6386,-4.6401,-4.6359,-4.6365,-4.6388,-4.6384,-4.6455,-4.6468,-4.6443,-4.6443,-4.6444,0,-4.5357,-4.5405,-4.5509,-4.5551,-4.5599,-4.5667,-4.5716,-4.5783,-4.5833,-4.5927,-4.5964,-4.6045,-4.6114,-4.6237,-4.6307,-4.6386,-4.6403,-4.6422,-4.6415,-4.6396,-4.6402,-4.6398,-4.6403,-4.6422,-4.6422,-4.6422,-4.6422,0,-4.5388,-4.5418,-4.5487,-4.5567,-4.5624,-4.5691,-4.5759,-4.5791,-4.5871,-4.5924,-4.6005,-4.6058,-4.6164,-4.6244,-4.6331,-4.6382,-4.6415,-4.6424,-4.6434,-4.6416,-4.6389,-4.6403,-4.6358,-4.6421,-4.6421,-4.6421,-4.6421,-4.6421,-4.5399,-4.5443,-4.5523,-4.5598,-4.5657,-4.5719,-4.5769,-4.5828,-4.5896,-4.5987,-4.6023,-4.6105,-4.6184,-4.6305,-4.6356,-4.6421,-4.6426,-4.6442,-4.6445,-4.6448,-4.6444,-4.638,-4.6437,-4.6438,-4.6438,-4.6438,-4.6438,0,-4.5431,-4.5485,-4.5553,-4.5646,-4.5706,-4.5732,-4.5809,-4.5857,-4.5928,-4.5999,-4.6066,-4.6158,-4.6237,-4.6313,-4.6396,-4.6434,-4.6451,-4.6453,-4.645,-4.6461,-4.6435,-4.6417,-4.6438,-4.6438,-4.6438,-4.6438,-4.6438,-4.6438,-4.5454,-4.5531,-4.5571,-4.5677,-4.5732,-4.5812,-4.5853,-4.5912,-4.5968,-4.6069,-4.6135,-4.6184,-4.6258,-4.6346,-4.642,-4.644,-4.6468,-4.6466,-4.649,-4.6464,-4.6463,-4.6462,-4.6446,-4.6471,-4.6471,-4.6511,-4.6511,-4.6511]},{"header":{"parameterUnit":"m.s-1","parameterCategory":1,"la1":30.2991,"la2":30.254,"lo1":-89.0895,"lo2":-89.0444,"dy":0.0017,"dx":0.0017,"nx":28,"ny":28,"refTime":"2025-03-14T09:00:00:Z","depth":0,"parameterNumber":3,"parameterNumberName":"V-component_of_WINDS"},"data":[0,0,0,0,0,0,0,0,0,0,0,0,0,0,0,0,0,0,0,0,0,0,0,0,0,0,0,0,0,0,0,0,0,0,0,0,0,0,0,0,0,0,0,0,0,0,0,0,0,0,0,0,0,0,0,0,0,0,6.2989,6.299,0,6.3126,6.3128,6.3129,6.3155,6.3154,6.3153,6.3152,6.3289,6.3293,6.3298,0,0,0,0,0,0,0,0,0,0,0,0,0,6.2748,6.2753,6.2989,6.2991,6.2992,6.3126,6.3128,6.3129,6.3156,6.3154,6.3153,6.3152,6.3287,6.3293,6.3298,0,0,0,0,0,0,0,0,0,0,0,0,0,6.2866,6.2754,6.2989,6.3022,6.3026,6.3125,6.3128,6.313,6.3156,6.3154,6.3153,6.3151,6.3285,6.3292,6.3299,6.3374,0,0,6.332,6.3323,0,0,0,0,0,0,0,0,6.2859,6.2874,6.3015,6.3019,6.3024,6.3122,6.3093,6.3212,6.3156,6.3106,6.3152,6.315,6.3234,6.3245,6.3274,6.338,6.3386,6.3321,6.3325,6.3328,6.333,0,0,0,0,0,0,0,6.2851,6.2869,6.3043,6.3017,6.3023,6.3029,6.3044,6.3115,6.3177,6.3111,6.3113,6.3129,6.3236,6.3268,6.3278,6.3388,6.3321,6.3327,6.3331,6.3334,6.3567,6.3569,0,0,0,0,0,0,6.2837,6.2862,6.3039,6.3047,6.2936,6.3035,6.3051,6.3092,6.3177,6.3188,6.313,6.313,6.3257,6.327,6.3283,6.3379,6.3328,6.3334,6.3338,6.3565,6.3567,6.3569,0,0,0,0,0,0,6.2832,6.2853,6.3033,6.2955,6.2979,6.3041,6.3086,6.3096,6.3127,6.3192,6.3203,6.3151,6.3256,6.3273,6.3352,6.3384,6.3338,6.3344,6.3562,6.3565,6.3568,6.3571,0,0,0,0,0,0,6.2825,6.2851,6.288,6.2956,6.2983,6.3101,6.3088,6.31,6.3139,6.314,6.3214,6.3225,6.3256,6.3342,6.3359,6.3393,6.3349,6.356,6.3564,6.3567,6.3568,6.3574,6.3578,0,0,0,0,0,6.2816,6.2874,6.2881,6.2903,6.3021,6.3103,6.3118,6.3154,6.3142,6.3172,6.3214,6.3222,6.3378,6.335,6.337,6.3406,6.3558,6.3563,6.3567,6.3566,6.3573,6.3578,0,0,0,0,0,0,6.2798,6.2884,6.2894,6.2977,6.3033,6.3107,6.3146,6.3159,6.3218,6.3216,6.3257,6.3273,6.3351,6.3386,6.3353,6.3485,6.3467,6.3476,6.3459,6.3466,6.3471,6.3462,6.3355,0,0,0,0,0,6.2804,6.2864,6.2935,6.3002,6.303,6.3083,6.312,6.3144,6.3202,6.3225,6.3273,6.3328,6.339,6.343,6.349,6.3573,6.3591,6.3608,6.3613,6.3617,6.3624,6.3674,6.3683,6.3584,6.3584,6.3584,0,0,6.2816,6.2871,6.2906,6.3,6.3046,6.3108,6.3103,6.3167,6.3213,6.3234,6.3314,6.3351,6.3415,6.3498,6.3537,6.353,6.3656,6.3623,6.3625,6.3631,6.368,6.3689,6.3697,6.3587,6.3587,6.3586,0,0,6.2871,6.2918,6.2981,6.3027,6.3097,6.3133,6.3148,6.3221,6.3247,6.3328,6.3346,6.3401,6.3505,6.3552,6.3589,6.3665,6.3676,6.3683,6.371,6.3758,6.3766,6.3773,6.3803,6.3813,6.369,6.369,6.369,0,6.2878,6.2972,6.301,6.3076,6.3118,6.3142,6.3206,6.3249,6.3334,6.3363,6.3354,6.3488,6.3533,6.3629,6.3648,6.3676,6.3696,6.3676,6.3762,6.3769,6.3777,6.3806,6.3816,6.3691,6.3691,6.3691,6.3691,0,6.2978,6.3043,6.3085,6.317,6.3217,6.328,6.3329,6.3371,6.3391,6.3427,6.351,6.3566,6.3639,6.3663,6.3681,6.3762,6.3756,6.3754,6.3737,6.3786,6.3814,6.3825,6.3692,6.3692,6.3691,6.3691,0,0,6.3025,6.3132,6.3147,6.3188,6.3268,6.3319,6.3385,6.3458,6.3495,6.3553,6.3611,6.37,6.37,6.3742,6.3766,6.3808,6.3869,6.3802,6.3804,6.3814,6.3964,6.3967,6.3979,6.3876,6.3878,6.388,6.396,0,6.3091,6.3211,6.3249,6.3349,6.3412,6.3436,6.3494,6.355,6.3586,6.3643,6.3683,6.3747,6.374,6.3767,6.3809,6.3852,6.39,6.3847,6.3931,6.3933,6.3916,6.3993,6.3996,6.4069,6.3971,6.3973,6.3974,0,6.3185,6.3248,6.3355,6.3431,6.3459,6.351,6.3582,6.3636,6.37,6.3724,6.3773,6.3795,6.3865,6.3844,6.3942,6.3905,6.3942,6.3968,6.3972,6.3983,6.3958,6.4009,6.4093,6.4105,6.3991,6.3989,6.3988,0,6.3212,6.3323,6.3403,6.3436,6.3525,6.3562,6.36,6.3663,6.3706,6.3768,6.3797,6.3866,6.3904,6.3958,6.3998,6.3978,6.4094,6.4074,6.4116,6.4116,6.4141,6.4139,6.4234,6.416,6.416,6.416,6.416,0,6.3284,6.3349,6.3417,6.3466,6.3541,6.3583,6.3655,6.3695,6.3751,6.3809,6.3833,6.3886,6.3935,6.3995,6.4026,6.4105,6.4121,6.4143,6.4151,6.4142,6.414,6.4168,6.4165,6.4163,6.4162,6.4162,6.4161,0,6.3327,6.3375,6.3464,6.3542,6.3564,6.3615,6.3682,6.3731,6.3769,6.3842,6.3861,6.392,6.3992,6.4038,6.4128,6.4149,6.4237,6.4241,6.4216,6.422,6.426,6.4257,6.4379,6.4398,6.4308,6.4309,6.431,0,6.3371,6.3423,6.3508,6.3549,6.3589,6.3654,6.3699,6.3743,6.3789,6.3867,6.3907,6.3981,6.4043,6.4157,6.4208,6.4278,6.4287,6.4325,6.4297,6.4288,6.4291,6.4288,6.4295,6.433,6.433,6.4331,6.4331,0,6.3445,6.3467,6.3532,6.3606,6.3659,6.3718,6.3778,6.381,6.3864,6.3914,6.399,6.4038,6.4132,6.4206,6.4282,6.4321,6.4336,6.434,6.4354,6.4346,6.4331,6.4343,6.4231,6.4337,6.4336,6.4336,6.4336,6.4335,6.3493,6.3541,6.3609,6.3681,6.3731,6.3786,6.3837,6.3883,6.3947,6.4028,6.405,6.4129,6.4194,6.4297,6.4339,6.4402,6.4396,6.4415,6.4421,6.4426,6.4428,6.4319,6.4415,6.4415,6.4415,6.4415,6.4415,0,6.3571,6.3616,6.3682,6.3766,6.3823,6.3833,6.39,6.3947,6.4017,6.4077,6.4138,6.4226,6.4298,6.4356,6.443,6.447,6.4479,6.4488,6.4487,6.4497,6.4427,6.4409,6.448,6.448,6.448,6.448,6.448,6.448,6.3618,6.3701,6.3732,6.384,6.3885,6.3965,6.4003,6.4054,6.4103,6.4201,6.4262,6.4299,6.4359,6.4438,6.4506,6.4521,6.4548,6.4557,6.4574,6.4508,6.4501,6.4494,6.4478,6.4562,6.4562,6.4638,6.4639,6.4639]}]]